Location: Byszew
(52.1813°N, 19.2693°E)
Time: 10:28:07
(UTC+00:00)

CAS-4B - Pass Details

Date: 08 July 2022
Orbit: 522 x 536 km, 43.0° (Epoch: 07 August)

Event Time Altitude Azimuth Distance (km) Brightness Sun altitude
Exits shadow 01:21:06 - 243° (WSW) 1,909 ? -8.2°
Reaches altitude 10° 01:21:36 10° 238° (WSW) 1,756 ? -8.1°
Maximum altitude 01:24:29 19° 192° (SSW) 1,280 ? -7.9°
Drops below altitude 10° 01:27:23 10° 146° (SE) 1,757 ? -7.6°
Sets 01:30:04 0° 129° (SE) 2,647 ? -7.4°
